Wetbulb
70.74 70.86 70.87 71.32 71.21 70.73 70.59 70.20 70.80 71.57 71.40 70.87 70.39 70.34 70.34 69.34 68.82 68.53 69.50 69.83 72.17 72.00 72.36 72.57 73.29 73.23 72.53 71.94 71.63 71.38 71.13 70.80 71.17
69.85 69.64 70.31 70.78 70.68 70.37 70.37 69.81 70.20 71.13 70.80 70.16 69.48 69.39 68.48 67.18 67.73 69.36 69.11 69.52 72.10 72.40 72.76 72.61 72.54 72.36 72.27 72.13 71.63 71.41 71.36 71.04 70.66
68.55 68.09 68.50 69.62 70.05 70.32 70.12 69.53 69.81 70.58 69.80 69.15 68.38 68.15 67.50 67.27 68.52 68.61 69.23 70.87 71.43 71.41 71.84 71.93 72.00 72.11 71.95 71.71 71.40 70.73 70.68 70.78 70.67
66.45 66.99 67.09 68.13 69.53 69.81 69.72 69.27 69.41 68.98 68.75 68.29 67.92 67.48 67.47 66.15 66.43 68.27 67.37 70.82 71.68 71.46 71.36 71.43 71.55 71.68 71.62 71.20 71.19 70.98 70.57 70.18 70.56
65.01 66.28 67.14 67.49 68.75 69.39 69.18 68.87 69.29 68.81 67.46 67.13 67.25 66.70 66.45 65.98 67.42 67.82 68.81 71.07 71.12 71.35 71.00 70.95 70.99 70.92 70.86 70.80 70.70 70.44 70.15 69.56 69.87
62.08 63.69 65.46 67.07 68.33 68.31 68.73 68.66 67.74 66.82 65.68 65.45 65.60 65.48 65.93 67.04 66.98 66.26 69.02 70.71 70.83 70.93 70.43 71.22 70.89 70.72 70.48 70.03 70.21 70.19 69.89 69.77 69.43
61.98 61.47 63.98 66.43 67.43 67.57 68.00 67.22 66.59 65.35 64.06 63.35 64.30 64.89 65.19 65.40 65.72 65.29 68.83 69.73 70.37 70.59 70.09 70.64 70.68 70.18 69.26 68.80 69.31 69.29 68.78 69.05 68.61
58.71 59.99 61.29 62.57 63.88 64.65 64.41 63.56 63.28 64.52 63.55 62.95 62.98 63.40 64.67 65.09 64.56 64.19 67.96 69.31 69.38 69.79 69.76 69.96 70.10 68.75 67.72 67.68 67.99 68.00 67.49 67.44 67.09
55.28 56.66 60.58 61.94 62.78 62.25 62.39 61.69 62.72 61.74 62.36 61.82 61.82 61.37 61.37 63.36 63.33 62.67 64.65 68.52 68.87 69.03 69.11 69.23 68.91 67.98 67.39 67.13 66.40 66.10 66.17 66.09 66.14
55.16 55.15 57.55 58.54 62.95 61.98 61.41 61.05 61.42 60.01 60.55 60.53 60.22 59.65 59.64 59.90 61.84 60.96 62.34 65.39 67.73 68.05 68.02 68.72 68.74 68.02 67.53 66.87 66.25 65.65 65.42 65.53 65.59
55.00 55.42 56.41 58.10 59.41 60.96 61.08 60.54 60.00 59.10 56.87 57.16 56.51 56.72 57.20 58.05 58.39 60.28 59.77 63.13 64.81 67.16 67.94 68.02 68.30 67.91 67.20 66.72 66.47 66.32 65.78 65.15 65.01
54.00 54.20 54.24 55.98 57.77 59.71 58.53 57.94 59.13 57.56 55.69 54.76 55.89 54.25 53.45 53.46 56.01 56.30 58.16 59.75 61.66 63.42 66.15 67.31 67.57 67.42 67.11 67.20 66.89 66.57 66.35 65.87 65.00
53.64 53.71 53.86 55.06 56.40 56.97 58.65 58.33 57.04 54.97 53.51 51.72 52.76 53.70 52.91 51.96 52.24 54.42 55.29 55.42 58.45 59.96 61.51 63.51 65.90 66.47 67.07 67.07 66.42 66.34 66.08 65.94 65.67
53.34 53.09 53.23 55.59 55.58 56.57 56.83 57.21 56.55 55.44 52.70 50.96 51.07 50.54 51.16 51.53 52.05 51.62 53.28 53.61 54.99 57.02 59.35 60.17 60.90 63.94 66.56 66.98 67.07 66.95 66.75 66.30 65.89
52.78 52.79 52.75 54.44 55.24 55.65 56.26 56.08 56.86 55.61 52.96 50.09 48.86 48.82 49.10 49.45 50.76 51.03 52.11 53.06 54.18 54.23 55.98 54.41 56.71 60.52 64.37 66.38 66.45 66.12 65.75 64.71 64.24
51.85 51.85 51.84 52.38 52.48 54.90 55.37 54.99 54.43 52.04 50.96 46.86 46.11 48.19 48.08 48.09 49.08 50.29 50.83 50.92 53.54 53.55 53.62 53.47 53.13 56.60 61.08 65.17 65.71 65.57 64.68 63.73 62.92
51.42 50.29 50.52 50.94 51.15 53.58 54.85 53.79 52.04 51.02 50.78 47.23 47.02 44.97 46.45 45.29 47.01 48.28 50.37 50.67 51.89 51.69 52.03 53.04 53.60 53.50 56.71 58.67 63.65 64.47 64.35 63.23 62.33
50.13 49.69 49.32 49.20 49.74 50.09 53.86 52.84 50.96 49.12 49.96 50.26 47.74 43.54 41.80 45.19 45.21 45.19 46.97 48.46 47.54 49.13 49.97 51.42 53.26 53.95 55.70 57.76 60.91 61.91 63.10 63.10 62.36
45.48 47.57 47.93 47.84 48.40 48.68 51.00 53.58 52.07 50.62 48.14 48.42 49.00 49.03 44.33 41.72 41.23 45.04 45.39 46.72 46.77 47.16 47.50 49.00 51.13 51.80 52.09 54.10 55.10 59.03 61.26 63.04 62.36
37.39 37.76 41.07 45.24 46.58 47.12 48.18 50.61 52.32 52.56 50.62 48.84 48.29 47.95 47.91 44.19 41.27 39.00 41.86 44.32 44.65 45.50 46.39 46.55 48.71 50.04 50.11 51.55 54.76 57.76 61.43 62.52 62.21
MSLP
1018.04 1018.04 1018.32 1018.31 1018.36 1018.45 1018.51 1018.63 1018.68 1018.70 1018.87 1018.85 1018.65 1018.65 1018.60 1018.48 1018.34 1018.58 1018.83 1018.96 1019.16 1019.20 1019.30 1019.42 1019.41 1019.62 1019.77 1019.93 1020.02 1020.20 1020.25 1020.41 1020.36
1018.25 1018.58 1018.70 1018.66 1018.61 1018.66 1018.83 1018.87 1018.96 1019.02 1019.20 1019.14 1019.05 1018.88 1018.76 1018.52 1018.58 1018.80 1019.05 1019.34 1019.29 1019.41 1019.52 1019.61 1019.83 1020.03 1020.14 1020.23 1020.36 1020.47 1020.62 1020.77 1020.80
1018.52 1018.87 1018.97 1018.82 1018.73 1018.96 1019.03 1019.09 1019.21 1019.30 1019.38 1019.43 1019.44 1019.19 1019.01 1018.91 1018.84 1019.07 1019.43 1019.57 1019.50 1019.62 1019.80 1019.96 1020.09 1020.28 1020.53 1020.58 1020.71 1020.87 1020.93 1021.00 1021.00
1018.91 1019.01 1019.10 1019.15 1019.01 1019.13 1019.29 1019.41 1019.44 1019.49 1019.74 1019.72 1019.69 1019.43 1019.38 1019.33 1019.24 1019.34 1019.70 1019.71 1019.76 1019.82 1020.03 1020.19 1020.40 1020.53 1020.76 1020.96 1021.03 1021.06 1021.23 1021.37 1021.31
1018.96 1019.27 1019.18 1019.15 1019.18 1019.41 1019.52 1019.62 1019.77 1019.76 1020.10 1020.08 1019.91 1019.82 1019.66 1019.47 1019.59 1019.93 1019.96 1019.91 1019.93 1020.14 1020.42 1020.51 1020.71 1020.89 1021.06 1021.23 1021.30 1021.47 1021.54 1021.65 1021.68
1019.07 1019.21 1019.12 1019.31 1019.51 1019.67 1019.69 1019.97 1020.01 1020.13 1020.43 1020.38 1020.33 1020.17 1020.06 1019.77 1019.98 1020.27 1020.26 1020.25 1020.27 1020.45 1020.60 1020.67 1020.83 1021.17 1021.34 1021.46 1021.56 1021.61 1021.83 1021.89 1021.96
1019.17 1019.20 1019.30 1019.40 1019.58 1019.72 1020.01 1020.21 1020.25 1020.46 1020.59 1020.60 1020.58 1020.44 1020.19 1020.34 1020.49 1020.81 1020.67 1020.55 1020.54 1020.60 1020.76 1020.89 1021.05 1021.31 1021.57 1021.79 1021.85 1021.88 1022.07 1022.26 1022.33
1019.31 1019.48 1019.62 1019.84 1020.03 1020.23 1020.35 1020.46 1020.56 1020.60 1020.87 1020.92 1020.96 1020.88 1020.86 1020.83 1021.19 1021.39 1021.10 1020.87 1020.76 1020.84 1021.01 1021.21 1021.35 1021.55 1021.76 1021.94 1022.24 1022.25 1022.46 1022.61 1022.63
1019.37 1019.44 1019.42 1019.68 1019.99 1020.22 1020.38 1020.56 1020.44 1020.84 1021.13 1021.48 1021.64 1021.44 1021.52 1021.37 1021.65 1021.99 1021.72 1021.30 1021.08 1021.10 1021.20 1021.42 1021.55 1021.79 1022.04 1022.22 1022.41 1022.52 1022.69 1022.75 1022.84
1019.59 1019.59 1019.61 1019.69 1020.00 1020.39 1020.58 1020.65 1020.85 1021.40 1021.72 1022.03 1022.04 1022.11 1022.17 1022.08 1022.25 1022.44 1022.21 1021.83 1021.52 1021.41 1021.40 1021.45 1021.74 1021.94 1022.13 1022.26 1022.42 1022.66 1022.76 1022.90 1023.02
1019.91 1020.02 1019.92 1020.01 1020.06 1020.33 1020.65 1020.90 1021.33 1021.73 1022.28 1022.52 1022.55 1022.50 1022.61 1022.52 1022.68 1022.55 1022.61 1022.33 1022.06 1021.84 1021.69 1021.63 1021.79 1021.96 1022.19 1022.33 1022.57 1022.76 1022.81 1022.97 1023.13
1020.18 1020.33 1020.35 1020.26 1020.20 1020.45 1021.03 1021.42 1021.40 1021.87 1022.57 1022.89 1022.76 1023.04 1023.18 1023.05 1022.80 1022.67 1022.79 1022.77 1022.58 1022.38 1022.29 1021.98 1021.93 1022.07 1022.23 1022.38 1022.58 1022.76 1022.88 1023.00 1023.20
1020.41 1020.58 1020.60 1020.47 1020.52 1020.58 1021.03 1021.26 1021.79 1022.23 1022.85 1023.25 1023.25 1023.28 1023.35 1023.37 1023.31 1023.06 1022.98 1022.94 1022.91 1022.84 1022.78 1022.60 1022.31 1022.12 1022.19 1022.31 1022.52 1022.69 1022.87 1023.08 1023.27
1020.63 1020.73 1020.73 1020.61 1020.79 1020.70 1020.97 1021.46 1021.69 1022.32 1022.91 1023.35 1023.52 1023.66 1023.64 1023.51 1023.46 1023.37 1023.27 1023.17 1023.10 1023.01 1022.87 1022.85 1022.69 1022.49 1022.28 1022.29 1022.52 1022.76 1022.94 1023.20 1023.40
1020.90 1020.95 1020.92 1020.92 1021.13 1021.27 1021.34 1021.62 1021.85 1022.24 1022.71 1023.34 1023.70 1023.73 1023.66 1023.69 1023.50 1023.40 1023.30 1023.33 1023.19 1023.15 1023.06 1023.10 1022.98 1022.78 1022.52 1022.50 1022.57 1022.83 1023.05 1023.34 1023.68
1021.20 1021.34 1021.23 1021.24 1021.53 1021.51 1021.66 1021.79 1022.10 1022.64 1022.91 1023.69 1023.95 1023.76 1023.53 1023.60 1023.51 1023.43 1023.41 1023.40 1023.14 1023.23 1023.24 1023.35 1023.32 1023.11 1022.84 1022.59 1022.62 1022.86 1023.08 1023.47 1023.84
1021.59 1021.75 1021.67 1021.53 1021.72 1021.61 1021.71 1022.08 1022.44 1022.77 1023.02 1023.59 1023.83 1023.85 1023.77 1023.47 1023.27 1023.33 1023.27 1023.20 1023.00 1023.21 1023.29 1023.38 1023.39 1023.38 1023.16 1022.97 1022.79 1022.93 1023.08 1023.50 1023.81
1022.20 1022.24 1022.18 1022.05 1021.87 1021.95 1021.83 1022.07 1022.39 1022.79 1023.02 1023.18 1023.49 1023.72 1023.86 1023.39 1023.34 1023.30 1023.18 1023.13 1023.19 1023.16 1023.32 1023.32 1023.31 1023.34 1023.29 1023.11 1022.85 1022.94 1023.08 1023.34 1023.73
1023.67 1023.10 1022.71 1022.53 1022.33 1022.21 1022.03 1021.80 1022.25 1022.55 1022.92 1023.19 1023.09 1023.12 1023.27 1023.60 1023.72 1023.33 1023.20 1023.10 1023.22 1023.11 1023.23 1023.26 1023.26 1023.29 1023.36 1023.26 1023.11 1022.97 1023.02 1023.12 1023.45
1025.55 1025.13 1024.35 1023.42 1022.89 1022.59 1022.30 1022.15 1022.15 1022.23 1022.49 1022.64 1022.70 1022.72 1022.78 1023.06 1023.71 1023.74 1023.44 1023.24 1022.92 1022.90 1022.96 1023.10 1023.17 1023.16 1023.28 1023.31 1023.16 1022.99 1022.97 1023.11 1023.08
Wind_Speed
12 12 9 9 9 10 10 9 9 9 9 7 6 7 9 8 4 6 7 6 10 12 12 12 13 14 16 16 16 15 15 15 15
12 10 7 6 8 9 9 9 8 9 8 7 6 8 10 7 7 7 7 5 10 12 12 13 13 13 13 14 15 15 15 14 14
9 6 5 4 6 7 8 8 7 9 9 7 6 9 10 8 6 7 6 8 9 10 10 11 11 13 13 13 14 13 13 13 14
5 5 2 3 4 7 8 7 7 7 7 6 6 8 9 5 4 8 4 8 11 9 8 9 10 12 12 12 13 13 12 11 12
4 3 3 2 4 7 6 7 9 10 6 6 7 11 11 3 7 6 5 8 9 10 8 9 10 11 13 12 12 11 10 10 11
5 5 4 2 3 6 8 9 8 9 3 4 8 10 3 7 6 5 10 6 7 8 9 12 12 13 14 12 10 11 10 10 10
5 5 2 4 5 8 10 8 7 6 3 1 6 4 5 5 6 5 10 5 6 7 7 11 13 14 13 11 11 11 11 12 11
2 2 2 4 6 3 4 3 2 4 4 5 5 6 5 5 5 9 11 7 5 6 8 9 14 12 10 10 10 11 10 10 10
1 0 3 4 3 5 3 2 5 6 7 7 5 6 6 4 5 7 13 12 7 5 7 8 11 11 11 11 10 10 10 10 9
2 3 2 2 4 4 3 4 5 6 6 4 4 6 6 7 3 3 11 13 13 7 3 8 10 11 10 10 10 9 9 9 8
3 4 3 2 3 4 4 4 4 5 5 4 5 6 5 5 5 3 4 10 13 14 8 6 9 10 10 10 9 8 9 9 8
3 2 3 3 2 6 5 4 4 6 4 4 4 4 4 4 5 4 2 4 10 12 13 8 8 8 9 9 9 8 8 9 8
0 1 2 2 2 3 4 3 4 4 4 2 3 3 3 3 4 4 4 4 2 7 8 9 9 3 7 10 10 10 10 10 9
2 1 2 3 3 1 1 1 4 4 4 3 3 2 2 2 1 2 2 4 3 1 6 7 10 9 6 11 14 14 15 14 14
3 3 3 2 1 3 1 1 2 3 5 3 1 0 1 1 1 1 1 1 1 3 3 3 3 8 5 10 15 14 15 14 12
2 3 2 1 3 4 3 1 3 3 4 3 2 3 3 4 3 3 3 3 3 1 2 0 2 2 5 5 11 15 15 13 11
5 5 4 1 2 4 3 2 2 2 3 3 1 2 3 3 5 4 4 6 3 3 1 1 2 2 0 3 9 12 16 13 12
6 7 6 5 3 2 3 4 4 3 3 5 3 0 4 1 1 5 4 4 3 3 3 3 3 3 2 2 5 11 15 15 13
17 12 7 6 4 5 2 4 4 4 4 2 4 3 4 1 3 2 4 4 4 5 3 4 4 3 1 1 1 8 11 17 16
18 17 16 12 5 6 6 3 4 4 3 3 2 4 3 3 3 3 3 2 3 4 4 5 4 5 4 3 3 3 10 17 16
Wind_Direction
85 73 79 90 93 89 83 76 69 86 76 62 32 359 345 343 106 92 85 75 89 91 92 93 98 102 101 96 91 87 84 79 78
81 69 63 89 99 96 93 80 78 79 76 56 11 340 343 350 62 85 83 81 90 91 89 93 97 101 98 98 95 88 85 81 77
89 69 43 54 97 100 92 81 81 85 67 44 0 335 345 350 84 91 82 90 92 97 99 101 102 105 102 100 97 92 86 81 79
83 91 28 17 100 105 99 96 96 95 60 31 340 329 329 315 55 81 73 94 89 88 94 101 103 103 102 103 96 92 89 86 85
118 145 170 46 54 124 119 105 98 83 56 7 337 336 331 22 78 65 43 60 90 89 98 101 96 100 98 98 95 95 96 96 91
126 81 57 91 47 144 113 111 103 84 59 351 343 324 329 59 60 44 23 60 88 97 97 106 105 106 101 96 106 107 99 106 99
97 99 121 138 88 108 119 123 114 149 175 49 5 350 42 63 60 37 24 55 97 102 97 101 113 109 105 105 98 90 94 91 91
175 166 158 139 133 111 119 130 188 146 74 38 20 4 17 70 58 24 20 45 86 94 100 120 118 112 110 109 109 107 107 103 96
308 182 149 141 159 148 161 152 85 66 60 46 34 20 25 33 69 29 27 36 63 110 129 133 124 123 126 124 119 117 116 110 110
356 347 68 126 117 114 101 81 69 73 76 43 48 49 25 30 68 65 36 38 41 44 113 142 147 136 135 132 129 129 125 122 120
32 355 1 356 127 123 104 89 112 96 83 63 46 49 26 26 31 81 52 49 42 40 39 150 156 146 143 141 142 145 143 137 130
43 4 348 323 4 107 103 91 105 93 80 74 78 69 41 28 10 32 37 69 55 48 34 31 145 151 154 148 142 142 145 147 139
70 63 319 304 11 106 134 128 92 106 111 109 57 69 72 51 18 15 10 9 43 66 56 40 39 171 173 151 144 135 137 139 134
4 346 291 62 1 13 133 152 141 142 119 118 93 82 58 47 70 42 15 357 4 46 66 47 39 19 188 161 134 124 120 118 112
355 337 4 84 272 230 282 167 160 137 131 108 90 182 164 296 269 205 229 243 310 6 66 25 17 30 14 169 147 136 128 119 114
350 331 345 31 318 213 254 35 115 67 100 91 335 247 219 225 225 227 233 216 170 121 2 147 345 356 23 165 162 148 136 128 122
3 350 338 278 296 315 152 104 109 87 153 151 208 281 331 264 217 211 225 205 168 176 221 239 211 285 334 325 175 168 146 140 132
11 354 346 341 335 305 183 165 166 164 193 217 190 5 234 248 161 228 221 220 188 196 197 233 238 217 225 288 200 174 159 152 147
12 359 352 337 333 321 258 188 178 156 190 240 245 224 156 360 336 300 227 215 213 197 198 208 225 207 198 243 294 199 175 166 157
9 360 358 347 342 329 321 316 212 197 177 192 190 221 203 172 173 285 287 278 220 220 194 201 205 196 208 228 216 188 192 180 164